Regional Weather Roundup
Issued by NWS

Home | Current Version | Previous Version | Text Only | Print | Product List | Glossary Off
Versions: 1 2 3 4 5 6 7 8 9 10 11 12 13 14 15 16 17 18 19 20 21 22 23 24 25 26 27 28 29 30 31 32 33 34 35 36 37 38 39 40 41 42 43 44 45 46 47 48 49 50

550
ASUS45 KBOU 210610
RWRCO

WEATHER ROUNDUP FOR COLORADO
NATIONAL WEATHER SERVICE DENVER/BOULDER CO
1200 AM MDT SAT APR 21 2018

NOTE: "FAIR" INDICATES FEW OR NO CLOUDS BELOW 12000 FEET WITH NO
SIGNIFICANT WEATHER AND/OR OBSTRUCTIONS TO VISIBILITY.

COZ001>005-013-030-031-210700-
...NORTHWEST COLORADO...

CITY           SKY/WX    TMP DP  RH WIND       PRES   REMARKS
CRAIG          CLOUDY    39  34  82 N9        30.03R
HAYDEN         CLOUDY    32  30  93 NE3       30.04R FOG
MEEKER         FLURRIES  34  31  88 SW7       30.04S WCI  28
RANGELY        DRIZZLE   40  38  96 CALM      30.09S
RABBIT EARS PA LGT SNOW  25  25 100 W7        30.03S VSB 3/4 WCI  17
STEAMBOAT SPGS CLOUDY    32  32 100 CALM      30.02R VSB 1
WALDEN         CLOUDY    30  27  86 N13       30.04R WCI  20
$$

COZ006>008-011-210700-
...WEST CENTRAL VALLEYS...

CITY           SKY/WX    TMP DP  RH WIND       PRES   REMARKS
GRAND JUNCTION CLOUDY    42  39  89 SE6       30.06S
MONTROSE       CLOUDY    38  35  89 S8        30.09F
EAGLE          LGT SNOW  34  30  86 CALM      30.06R VSB 1
RIFLE          LGT SNOW  35  34  96 CALM      30.06F FOG
DELTA          LGT RAIN  41  37  87 CALM      30.09R
NUCLA          LGT RAIN  39  32  75 E7        30.13R
$$

COZ017>023-064>068-210700-
...SOUTHWEST COLORADO...

CITY           SKY/WX    TMP DP  RH WIND       PRES   REMARKS
DURANGO        FAIR      38  24  57 SW6       30.05S
CORTEZ         CLOUDY    35  26  69 E3        30.09S
PAGOSA SPRINGS FAIR      29  22  74 CALM      30.06S
TELLURIDE      LGT SNOW  29  28  96 CALM      30.12R VSB 1
WOLF CREEK PAS FAIR      18  14  86 SW12G18   30.13R WCI   5
$$

COZ009-010-012-014-032>034-037-058>063-210700-
...CENTRAL COLORADO...

CITY           SKY/WX    TMP DP  RH WIND       PRES   REMARKS
ASPEN          LGT SNOW  31  29  92 CALM      30.03S FOG
BUENA VISTA    FLURRIES  31  29  91 CALM      30.03S
COPPER MTN     NOT AVBL
BERTHOUD PASS  CLOUDY    18   9  68 SE5       30.05R WCI  11
COTTONWOOD PAS LGT SNOW  30  28  93 W8        30.03F WCI  23
GUNNISON       LGT SNOW  31  29  92 SW3       30.06S FOG
GRANBY         LGT SNOW  32  32 100 CALM      30.01S
KREMMLING      LGT SNOW  37  34  87 W9        30.02S
LEADVILLE      LGT SNOW  23  22  96 NE5       30.03S FOG     WCI  17
MONARCH PASS   SNOW      18  16  93 W21       30.15R VSB 1/2 WCI   1
SALIDA         CLOUDY    33  32  96 SE3       30.11R
SUNLIGHT       LGT SNOW  23  21  93 MISG      30.09S
WILKERSON PASS CLOUDY   N/A N/A N/A CALM      30.05F
$$

COZ069>075-210700-
...SAN LUIS VALLEY/SANGRE DE CRISTO MOUNTAINS...

CITY           SKY/WX    TMP DP  RH WIND       PRES   REMARKS
ALAMOSA        CLOUDY    28  25  88 S6        30.04S WCI  22
DEL NORTE      CLOUDY    32  23  70 W5        30.05R WCI  27
LA VETA PASS   FAIR      23  18  80 SW14G22   30.14F WCI  11
SAGUACHE       NOT AVBL
$$

COZ035-036-038>040-210700-
...NORTHERN COLORADO FRONT RANGE...

CITY           SKY/WX    TMP DP  RH WIND       PRES   REMARKS
DENVER INTL AP LGT SNOW  34  34 100 SE12      30.06S FOG     WCI  25
AURORA         FLURRIES  34  33  99 SE13      30.06R WCI  25
FRONT RANGE AP LGT SNOW  35  34  96 SE13      30.07S WCI  27
ERIE MUNI ARPT LGT SNOW  33  32  96 N7        30.14R VSB 1   WCI  27
BOULDER MUN AP LGT RAIN  34  34 100 N7        30.09R WCI  28
CENTENNIAL     LGT SNOW  35  32  88 SE15G23   30.05R FOG     WCI  25
BROOMFIELD     LGT SNOW  34  32  93 NW6       30.07R WCI  29
FORT COLLINS   LGT SNOW  34  32  93 E8        30.13R FOG     WCI  27
LONGMONT       MIX PCPN  36  34  91 NE6       30.12R
$$

COZ041-046-047-076>085-087-088-210700-
...PIKES PEAK/PALMER DIVIDE AND SOUTHERN FOOTHILLS...

CITY           SKY/WX    TMP DP  RH WIND       PRES   REMARKS
COLO. SPRINGS  SNOW      32  32 100 SE6       30.07R VSB 1/4 WCI  26
A. F. ACADEMY  LGT SNOW  31  31 100 S7        30.06R FOG     WCI  25
SCHRIEVER AFB  NOT AVBL
CHEYENNE MTN   LGT SNOW  30  30 100 SW8       30.00S WCI  22
ELLICOTT       LGT RAIN N/A N/A N/A SE14      30.04F
FALCON         LGT SNOW  31  31 100 SE6       30.07S WCI  25
FORT CARSON    LGT SNOW  32  32  99 CALM      30.05S FOG
LIMON          LGT SNOW  32  32 100 SE3       30.08F VSB 3/4
MONUMENT HILL  FLURRIES  30  30 100 SE10      30.06S WCI  21
CANON CITY     LGT SNOW  34  34 100 NE7       30.06R WCI  28
WALSENBURG     NOT AVBL
TRINIDAD       MOCLDY    35  33  92 NW7       30.02S WCI  29
$$

COZ042>045-048>051-090-091-210700-
...NORTHEAST COLORADO...

CITY           SKY/WX    TMP DP  RH WIND       PRES   REMARKS
GREELEY ARPT   MIX PCPN  35  34  96 E9        30.13R WCI  28
AKRON          LGT RAIN  35  35 100 E16G24    30.12S FOG     WCI  25
BURLINGTON     CLOUDY    39  38  96 SE21G31   30.10R
WRAY           DRIZZLE   37  37 100 E10G17    30.17R
YUMA           DRIZZLE   34  34 100 E13       30.15R WCI  25
STERLING       NOT AVBL
HOLYOKE        DRIZZLE   39  37  93 E16       30.19S
FORT MORGAN    RAIN      35  34  94 E13G18    30.14S WCI  27
$$

COZ086-089-092>099-210700-
...SOUTHEAST COLORADO...

CITY           SKY/WX    TMP DP  RH WIND       PRES   REMARKS
PUEBLO         CLOUDY    42  34  73 SE10      30.04F
LA JUNTA       CLOUDY    42  38  85 SE14      30.04S
LAMAR          CLOUDY    41  38  89 SE16G24   30.05S
SPRINGFIELD      N/A     39  39 100 E13       30.05S
$$




USA.gov is the U.S. government's official web portal to all federal, state and local government web resources and services.